OSCAR 30 (15935 NORAD) Tracking and Keplerian Element Data

This shows tracking and keplerian element data for the satellite.

Feedback or suggestion? Click here.




ElementValue
Catalog15935
NameOSCAR 30
Epoch Orbit96551
Epoch Day354.10386391
Epoch Year2025
RAAN99.9676
Inclination90.1655
Eccentricity0.0169199
Argument of Perigee63.3487
Mean Anonmoly108.9124
Mean Motion13.36079328
Decay Rate6.6E-07
L11 15935U 85066A 25354.10386391 .00000066 00000+0 10067-3 0 9996
L22 15935 90.1655 99.9676 0169199 63.3487 108.9124 13.36079328965516



Live tracking and technical data element details for OSCAR 30 (NORAD 15935). OSCAR 30 can be tracked NOW for your location showing map with azimuth and elevation plus other details from your city location.







IsCatalogInMostPopularTable: catalog: 15935, numindb: 460
Update: records affected: 1



GetName: 15935 OSCAR 30

Hit Count: updated at: Tue, 20 Jan 2026 19:03:16 GMT